User: anonymous   Login
Location: Grange Verzio
(44.5000°N, 6.9833°E)
Time: 16:28:11
(UTC+00:00)
Language:

Cosmos 1892 Rocket - Orbit

View from above orbital plane
View from above orbital plane
View from above satellite
View from above satellite

Ground track
Ground track

The orbit data is extracted from the following two-line orbital elements,

1 18422U 87088B   24110.76470469  .00001316  00000-0  15450-3 0  9998
2 18422  82.5138 354.6872 0020440 123.9466 236.3696 14.84050500951087
Epoch (UTC): 19 April 2024 18:21:10
Eccentricity: 0.0020440
inclination: 82.5138°
perigee height: 602 km
apogee height: 631 km
right ascension of ascending node: 354.6872°
argument of perigee: 123.9466°
revolutions per day: 14.84050500
mean anomaly at epoch: 236.3696°
orbit number at epoch: 95108

The dashed part of the orbit path shows where the satellite is in the earth's shadow,  

DLR